Location: Newark
(46.3500°N, 3.3050°E)
Time: 19:43:38
(UTC+00:00)

Envisat - Visible Passes

Search period start: 17 September 2019 00:00
Search period end: 27 September 2019 00:00
Orbit: 764 x 766 km, 98.1° (Epoch: 17 September)

Date Brightness Start Highest point End Pass type
(mag) Time Alt. Az. Time Alt. Az. Time Alt. Az.
17 Sep 6.4 19:40:28 10° W 19:41:23 10° W 19:42:19 10° WNW visible
18 Sep 5.6 19:00:10 10° SW 19:04:09 23° W 19:08:09 10° NW visible
19 Sep 4.2 18:22:14 10° S 18:27:07 47° W 18:32:02 10° NNW visible
20 Sep 6.1 19:27:30 10° WSW 19:29:58 13° W 19:32:26 10° WNW visible
21 Sep 5.2 18:48:27 10° SSW 18:52:47 28° W 18:57:10 10° NW visible
22 Sep 3.8 18:10:49 10° S 18:15:49 59° W 18:20:52 10° NNW visible
23 Sep 5.9 19:15:19 10° SW 19:18:34 17° W 19:21:50 10° NW visible
24 Sep 4.8 18:36:50 10° SSW 18:41:27 35° W 18:46:06 10° NNW visible
25 Sep 3.3 17:59:28 10° S 18:04:32 74° WSW 18:09:39 10° NNW visible
26 Sep 5.7 19:03:23 10° SW 19:07:10 21° W 19:11:00 10° NW visible
